Wetbulb
55.62 55.64 55.71 55.80 56.03 55.60 55.34 55.22 53.70 53.58 54.42 54.56 55.85 56.72 59.07 60.45 59.50 55.22 50.81 54.48 57.09 62.26 63.28 58.42 58.28 55.88 52.54 48.77 49.09 46.47 38.89 35.01 37.52 38.76 40.43 44.16 42.97 47.22 47.14 44.82 46.48 46.50 48.86 54.70 61.23
54.56 54.61 54.69 54.94 54.87 55.06 55.00 54.59 54.16 53.42 53.29 53.55 54.41 55.95 57.24 58.98 54.58 51.75 55.73 60.25 61.64 61.63 58.04 55.32 53.27 52.08 48.07 47.10 47.01 43.72 38.23 39.56 43.11 42.54 42.34 44.19 44.16 44.60 45.70 44.99 44.08 44.81 55.07 58.48 63.36
53.99 54.01 54.02 54.04 54.35 54.09 54.11 53.84 53.72 53.72 53.16 53.21 53.38 54.35 55.88 56.97 49.92 47.46 59.46 60.43 61.75 61.79 59.24 56.43 53.74 50.73 46.20 45.61 44.79 43.69 39.65 44.09 46.12 46.98 47.34 45.42 44.91 46.32 43.79 43.03 44.65 43.80 47.31 52.92 56.35
53.54 53.40 53.56 53.16 53.40 53.13 53.00 53.19 53.18 53.30 53.20 53.16 53.15 53.61 54.96 54.28 39.14 51.42 59.21 61.28 61.94 59.75 57.80 55.36 50.44 46.44 44.22 42.65 45.72 41.16 44.76 45.76 47.39 48.90 46.98 44.01 45.41 43.28 45.42 45.69 48.19 48.04 48.51 49.29 51.64
52.69 52.81 52.76 52.68 52.50 52.31 52.17 52.26 52.48 52.45 52.67 52.71 52.80 53.16 52.32 48.93 45.94 55.48 60.81 61.88 58.24 57.98 55.25 53.53 49.02 45.41 42.66 44.02 44.05 42.20 43.26 46.09 47.40 47.46 46.05 46.38 44.02 43.84 43.96 47.74 48.86 49.29 49.64 48.48 48.63
52.61 52.26 51.84 51.84 51.92 51.64 51.65 51.70 51.89 52.17 51.99 51.55 52.23 52.72 48.81 43.01 53.73 54.99 55.54 59.10 56.71 56.61 54.11 52.87 50.12 48.10 45.01 43.91 42.85 44.63 44.96 44.79 45.32 45.38 45.40 44.21 43.55 43.71 44.41 46.50 46.86 47.03 47.93 47.88 47.79
52.58 52.21 51.69 51.59 51.65 51.48 51.40 51.57 51.81 51.61 51.73 51.96 51.88 49.80 47.16 46.25 54.01 53.17 57.07 58.05 58.38 57.15 52.93 52.61 51.58 48.06 45.74 42.70 45.95 44.60 40.44 41.62 43.25 44.25 43.97 44.64 41.08 40.82 46.02 47.27 46.06 45.34 45.49 47.35 48.18
52.29 51.78 51.37 51.17 51.21 51.22 51.40 51.59 51.65 51.41 51.22 51.28 51.79 49.12 44.12 53.77 55.13 53.09 54.51 56.37 57.56 56.74 55.07 54.29 54.13 49.31 45.42 45.72 43.84 41.31 40.11 35.41 41.54 43.97 44.65 43.87 35.08 42.74 46.15 44.43 44.23 44.78 44.49 45.00 47.40
52.03 51.78 51.29 50.88 50.51 50.71 50.98 51.07 51.33 51.51 51.60 51.10 46.90 46.55 43.04 53.96 50.48 52.75 52.83 54.36 55.57 55.79 55.40 56.03 52.50 47.27 44.21 39.34 37.43 36.28 31.79 34.13 38.32 43.13 42.21 41.25 36.52 42.78 44.69 42.93 42.78 43.13 43.69 44.57 45.14
51.26 51.38 50.81 50.12 49.94 50.19 50.57 50.81 50.55 49.30 48.61 48.77 47.37 42.52 47.00 45.62 50.19 52.34 54.34 55.94 52.86 52.74 51.05 49.68 48.77 41.63 38.63 38.81 30.06 34.00 31.17 32.96 34.14 37.45 39.49 37.63 36.25 40.66 42.09 41.61 41.89 42.33 42.56 42.73 43.94
51.28 50.75 50.58 50.42 50.14 50.00 47.03 41.54 36.49 36.69 41.48 37.88 41.38 43.14 45.65 49.85 52.98 50.75 53.07 53.35 52.81 50.08 43.00 46.57 42.06 38.00 39.21 38.80 36.90 36.23 34.15 32.64 34.96 39.20 36.51 35.41 34.24 38.03 41.14 39.39 39.17 40.24 41.52 42.83 44.33
52.34 50.88 50.42 50.42 50.52 49.16 44.33 38.42 38.05 40.11 32.10 41.47 43.91 46.25 48.89 50.63 45.48 48.51 53.60 48.11 47.05 41.29 44.44 41.81 38.21 41.98 42.12 40.46 39.85 37.80 34.10 31.93 35.87 37.65 35.37 34.24 33.19 37.91 40.37 39.78 41.14 42.26 42.86 43.80 43.99
52.00 51.82 48.63 49.89 49.72 46.27 41.82 39.74 44.78 43.38 34.04 38.07 42.96 45.04 46.95 48.82 44.83 45.62 50.16 48.14 44.49 42.37 41.57 39.10 40.10 45.34 43.47 41.62 39.97 36.76 34.39 31.86 32.73 34.89 33.31 31.82 31.26 32.82 37.07 37.84 39.19 40.26 41.01 41.46 42.03
51.60 51.66 51.01 49.48 45.04 44.71 39.62 45.71 45.40 42.43 28.46 32.67 39.93 44.97 47.58 47.64 42.36 49.52 50.99 47.49 44.52 40.60 41.50 39.25 44.12 42.44 41.87 40.32 39.31 33.33 35.71 35.36 33.31 30.16 26.23 31.64 23.98 30.26 33.59 33.55 35.08 34.71 35.17 36.05 37.25
51.31 51.44 50.69 49.62 43.50 40.97 42.05 46.43 44.79 39.32 19.47 36.64 41.25 49.76 46.46 41.23 42.75 44.80 50.36 47.43 41.39 40.32 41.23 36.57 40.30 40.04 39.15 39.40 39.90 35.77 36.54 33.61 31.76 28.08 24.33 26.04 23.65 28.30 29.22 30.82 32.60 34.65 34.85 35.80 36.26
50.90 50.40 48.97 46.13 45.08 46.06 45.35 44.55 39.75 21.77 19.02 34.21 40.75 40.90 39.60 41.50 41.94 45.13 45.12 47.81 46.96 40.71 39.98 37.01 41.23 40.46 39.60 39.14 39.90 38.31 33.63 30.31 28.08 25.66 16.68 22.63 22.97 25.16 27.31 28.23 31.84 33.41 33.62 36.06 37.25
50.81 49.66 46.84 46.34 38.95 45.38 43.84 38.24 23.17 22.95 34.95 33.92 36.80 38.43 37.67 38.83 40.29 41.29 40.01 38.14 37.63 33.14 33.00 36.40 35.49 38.34 39.76 34.92 36.18 34.74 31.80 19.40 16.20 13.56 16.90 25.07 23.45 26.05 30.55 32.84 32.61 33.17 34.21 36.39 37.18
50.89 48.80 47.09 45.69 46.36 45.85 43.00 31.89 20.85 32.08 34.41 39.47 37.65 37.33 35.15 37.59 38.62 39.20 37.48 34.79 36.25 36.06 32.33 29.03 29.39 35.63 37.48 34.66 32.55 29.86 29.06 19.87 14.79 13.25 18.56 25.84 22.11 27.69 32.46 33.14 34.15 34.52 35.14 38.09 39.69
47.81 42.14 42.57 46.70 47.70 46.57 37.07 27.39 26.39 31.82 38.32 36.83 36.29 33.90 34.05 36.93 38.37 37.15 34.48 33.33 34.24 33.25 27.80 24.92 26.60 35.75 36.78 36.53 35.45 29.98 23.23 28.73 21.33 19.17 15.43 20.30 24.95 30.39 32.84 32.86 32.96 34.35 36.46 37.25 37.70
39.35 38.73 39.90 46.08 46.70 40.46 30.73 32.58 33.65 37.58 37.34 35.18 29.48 32.51 28.27 34.11 33.54 35.00 32.33 35.35 34.99 36.00 34.88 30.96 26.30 34.20 35.65 37.08 35.92 32.66 33.59 24.05 19.97 10.55 14.00 18.66 20.17 23.59 28.37 30.62 33.99 34.83 34.90 38.74 39.49
37.72 34.53 41.19 44.99 43.03 36.22 28.91 33.11 38.09 41.18 39.53 34.14 30.85 30.05 31.24 31.21 32.15 32.28 31.83 33.66 36.31 35.40 36.52 32.47 29.45 30.95 33.78 30.56 29.89 30.41 26.73 26.22 24.76 22.04 15.54 16.43 21.70 29.04 29.73 30.60 32.94 34.74 37.12 38.19 38.55
35.27 29.58 41.25 42.40 33.70 37.57 34.98 37.21 40.40 38.72 39.89 37.10 34.88 33.12 30.98 31.17 29.11 29.49 30.92 32.77 37.45 37.19 32.83 34.21 29.18 20.62 28.83 32.43 34.11 31.88 29.51 27.15 18.45 16.15 19.32 18.46 22.09 32.94 32.44 33.40 34.80 39.09 37.95 40.33 43.94
33.07 33.33 41.08 40.17 29.40 33.33 35.63 36.73 38.40 37.58 37.27 35.50 33.52 34.76 34.44 31.44 29.39 31.00 32.55 36.49 38.20 36.31 33.84 34.56 26.06 17.75 24.97 29.42 31.97 29.72 30.57 29.93 27.16 23.89 15.34 17.09 22.91 33.57 32.73 34.78 38.32 39.37 40.22 43.13 44.32
34.16 29.16 34.98 36.63 34.87 35.50 34.95 33.52 34.30 38.95 37.52 36.91 34.81 35.65 33.73 31.35 33.39 31.00 31.64 37.13 37.61 38.13 42.27 38.61 28.63 24.07 20.49 23.55 28.40 25.37 29.55 29.82 27.78 16.74 21.90 23.14 25.42 32.34 34.65 35.54 38.92 41.23 40.29 42.30 41.87
34.17 34.41 37.71 31.76 31.54 30.07 32.28 34.25 33.94 34.85 38.36 36.50 33.65 34.41 33.34 29.96 31.60 31.13 33.17 34.27 37.98 42.33 37.88 35.32 23.19 24.70 28.69 30.26 29.57 29.11 29.66 29.76 25.60 27.04 22.06 25.53 26.89 32.04 35.37 36.77 39.68 39.34 42.59 40.85 36.91
34.70 36.03 38.83 35.78 33.07 30.27 32.06 32.38 34.54 35.96 36.46 33.88 33.01 35.05 34.49 31.76 32.72 31.45 33.44 32.64 32.49 35.83 34.34 33.94 28.16 30.56 22.13 29.64 29.60 27.78 30.07 30.63 30.51 31.08 30.15 31.03 30.18 37.53 38.23 39.44 41.55 42.06 39.23 37.01 36.89
40.88 41.42 39.24 35.05 31.17 29.28 30.38 32.57 35.31 37.75 37.61 38.75 36.89 36.14 35.42 37.26 38.10 36.85 36.88 36.99 35.86 34.08 32.35 32.58 29.10 23.11 19.17 27.92 28.72 25.23 28.94 30.31 31.36 32.27 32.00 28.04 33.62 36.37 37.05 40.98 40.90 39.01 35.96 35.00 35.86
MSLP
1016.07 1015.60 1015.29 1014.85 1014.70 1014.49 1014.17 1014.12 1013.79 1013.91 1013.74 1013.54 1013.24 1012.78 1012.42 1011.99 1012.24 1012.53 1012.10 1011.87 1011.87 1011.77 1011.67 1012.22 1012.84 1013.17 1013.49 1013.94 1014.13 1014.72 1015.66 1015.87 1015.32 1014.99 1014.12 1013.26 1012.92 1012.34 1012.01 1011.91 1011.61 1011.29 1011.50 1011.45 1011.59
1015.84 1015.33 1014.96 1014.56 1014.29 1014.11 1013.84 1013.85 1013.79 1013.55 1013.45 1013.35 1013.12 1012.79 1012.52 1012.04 1012.06 1011.63 1011.13 1011.07 1011.18 1011.41 1011.76 1012.00 1012.75 1013.38 1013.84 1014.08 1014.26 1014.45 1014.92 1014.67 1014.10 1013.82 1013.43 1013.26 1012.95 1012.73 1012.41 1012.33 1012.00 1011.63 1011.80 1011.80 1012.00
1015.57 1015.10 1014.76 1014.47 1014.07 1013.90 1013.86 1013.59 1013.33 1013.30 1013.22 1013.03 1012.84 1012.70 1012.39 1012.35 1011.84 1010.21 1009.64 1010.22 1010.49 1011.14 1011.55 1011.85 1012.62 1013.39 1014.00 1014.16 1014.18 1014.21 1014.24 1014.02 1013.41 1013.14 1012.96 1013.12 1013.11 1012.92 1012.85 1012.69 1012.37 1012.41 1012.57 1012.33 1012.70
1015.21 1014.84 1014.40 1014.07 1013.81 1013.59 1013.51 1013.27 1013.15 1013.10 1012.93 1012.84 1012.79 1012.62 1012.41 1012.22 1011.21 1008.95 1008.65 1009.15 1009.96 1010.85 1011.37 1011.88 1012.71 1013.44 1013.92 1013.99 1013.86 1014.09 1013.84 1013.58 1013.11 1012.96 1013.01 1013.11 1012.99 1013.15 1013.08 1012.69 1012.31 1012.44 1012.65 1012.73 1012.84
1014.70 1014.53 1014.17 1013.82 1013.56 1013.34 1013.24 1013.02 1012.90 1012.91 1012.64 1012.52 1012.43 1012.42 1012.35 1011.06 1009.93 1008.85 1008.79 1008.69 1009.80 1010.52 1011.13 1011.86 1012.50 1013.20 1013.61 1013.71 1013.82 1013.88 1013.73 1013.49 1013.15 1013.05 1013.07 1013.07 1013.14 1013.36 1013.00 1012.74 1012.53 1012.64 1012.63 1012.86 1013.03
1014.30 1014.22 1013.82 1013.65 1013.35 1013.18 1013.02 1012.83 1012.68 1012.46 1012.26 1012.16 1012.25 1012.10 1011.98 1010.32 1008.88 1008.82 1008.73 1008.51 1009.38 1010.33 1011.16 1011.72 1012.14 1012.58 1013.30 1013.45 1013.63 1013.53 1013.66 1013.51 1013.21 1013.22 1013.09 1013.22 1013.15 1013.32 1012.95 1012.65 1012.74 1012.84 1012.82 1012.76 1013.06
1014.11 1013.82 1013.47 1013.28 1013.05 1012.94 1012.74 1012.57 1012.38 1012.15 1012.04 1011.98 1012.06 1011.98 1011.08 1009.66 1008.98 1008.94 1008.65 1008.72 1009.26 1009.98 1010.89 1011.49 1011.96 1012.33 1012.91 1013.32 1013.31 1013.54 1013.90 1013.72 1013.33 1013.32 1013.30 1013.27 1012.93 1013.07 1012.80 1012.80 1012.69 1012.88 1012.94 1012.85 1012.66
1013.81 1013.45 1013.22 1012.91 1012.67 1012.61 1012.49 1012.25 1011.99 1011.89 1011.79 1011.68 1011.69 1011.63 1010.15 1009.05 1008.94 1009.06 1008.97 1009.09 1009.70 1010.19 1010.72 1011.33 1011.71 1012.36 1012.72 1012.98 1013.43 1013.89 1014.25 1014.22 1013.48 1013.31 1013.20 1013.29 1012.83 1012.67 1012.66 1012.91 1012.95 1012.66 1012.75 1012.78 1012.35
1013.49 1013.15 1012.93 1012.53 1012.39 1012.34 1012.15 1011.88 1011.55 1011.41 1011.40 1011.47 1011.63 1011.43 1009.70 1009.15 1009.00 1009.04 1009.14 1008.95 1009.69 1010.25 1010.80 1011.28 1011.92 1012.53 1012.95 1013.37 1014.09 1014.37 1014.62 1014.59 1013.97 1013.33 1013.47 1013.61 1013.30 1012.98 1012.87 1013.09 1013.21 1012.88 1012.47 1012.37 1012.19
1013.09 1012.73 1012.33 1012.12 1012.01 1011.87 1011.81 1011.38 1010.95 1010.80 1011.08 1011.47 1011.48 1011.46 1009.71 1009.19 1009.34 1009.10 1009.12 1008.83 1009.64 1010.32 1011.12 1011.73 1012.24 1012.83 1013.32 1013.60 1013.81 1014.42 1014.84 1014.78 1014.47 1013.93 1013.92 1013.99 1013.97 1013.30 1012.92 1012.84 1013.05 1012.79 1012.25 1011.80 1011.82
1012.35 1012.12 1011.94 1011.82 1011.71 1011.65 1011.76 1011.60 1011.59 1011.60 1011.30 1010.99 1010.58 1009.70 1009.21 1008.86 1009.08 1009.12 1009.04 1009.14 1009.43 1010.49 1010.72 1011.58 1012.07 1012.34 1013.11 1013.63 1013.96 1014.52 1014.81 1015.17 1014.67 1014.37 1014.38 1014.20 1014.18 1013.26 1012.68 1012.62 1012.47 1012.36 1011.87 1011.22 1010.74
1011.52 1011.45 1011.60 1011.61 1011.60 1011.60 1011.91 1012.07 1012.05 1012.20 1011.76 1010.88 1010.43 1009.71 1009.24 1008.71 1008.88 1009.30 1008.74 1008.98 1009.59 1010.09 1011.05 1012.25 1012.05 1012.53 1013.16 1013.60 1014.07 1014.61 1015.05 1015.27 1015.06 1014.97 1014.98 1014.68 1014.29 1013.00 1012.15 1011.86 1011.50 1011.37 1011.07 1010.74 1010.51
1011.01 1010.29 1010.94 1011.41 1011.46 1011.70 1011.92 1012.05 1011.98 1012.20 1011.94 1011.29 1010.84 1009.70 1009.08 1008.84 1009.17 1009.37 1009.30 1009.50 1010.14 1010.78 1011.26 1012.14 1012.58 1012.67 1012.84 1013.60 1014.17 1014.74 1015.02 1015.40 1015.77 1015.73 1015.75 1015.41 1014.27 1013.29 1011.90 1011.54 1011.50 1011.40 1011.14 1010.93 1010.90
1010.92 1010.14 1010.00 1011.10 1011.84 1011.76 1011.94 1011.98 1012.13 1012.21 1012.31 1011.98 1010.69 1009.39 1009.39 1008.83 1009.59 1009.66 1009.84 1010.32 1010.98 1011.39 1011.76 1012.86 1012.60 1012.74 1013.15 1013.66 1014.24 1014.88 1015.15 1015.75 1016.52 1016.78 1017.18 1016.71 1016.06 1014.01 1012.36 1012.07 1011.95 1011.85 1011.66 1011.48 1011.44
1011.41 1010.62 1010.54 1010.97 1011.77 1012.01 1012.32 1012.06 1012.18 1012.30 1011.81 1011.54 1009.84 1009.45 1009.02 1009.48 1009.86 1010.14 1010.26 1009.92 1010.92 1011.76 1012.34 1013.25 1013.02 1013.35 1013.63 1014.15 1014.66 1015.40 1015.72 1016.64 1017.49 1017.90 1018.24 1017.84 1017.61 1013.89 1012.91 1012.70 1012.40 1012.28 1012.37 1012.24 1012.11
1012.51 1012.03 1011.82 1011.98 1012.27 1012.31 1012.19 1012.14 1012.34 1012.55 1012.14 1011.18 1010.24 1009.69 1009.76 1010.03 1010.12 1010.45 1010.67 1010.64 1011.27 1012.27 1012.80 1013.25 1013.52 1013.75 1014.01 1014.64 1014.90 1015.53 1016.42 1017.61 1018.64 1019.24 1019.50 1018.64 1017.93 1014.50 1013.42 1013.09 1012.67 1012.62 1012.62 1012.37 1012.00
1013.15 1012.82 1012.50 1012.72 1013.00 1012.68 1012.55 1012.30 1011.87 1011.99 1012.69 1011.51 1010.53 1010.14 1010.30 1010.62 1010.77 1010.88 1011.18 1011.60 1012.19 1013.10 1013.51 1013.82 1014.16 1014.00 1014.06 1014.75 1015.37 1015.73 1016.90 1018.89 1020.05 1020.62 1020.17 1019.12 1018.33 1014.49 1013.30 1012.78 1012.50 1012.62 1012.69 1012.29 1011.86
1013.41 1013.39 1013.47 1013.59 1013.36 1013.05 1012.96 1012.39 1012.52 1012.14 1011.36 1011.22 1010.88 1010.95 1011.26 1011.39 1011.74 1011.86 1012.04 1012.55 1012.82 1013.02 1013.99 1014.28 1014.87 1014.31 1014.39 1014.73 1015.46 1016.51 1017.48 1019.13 1020.18 1021.20 1020.67 1019.63 1017.54 1014.29 1013.12 1012.44 1012.23 1012.21 1012.29 1011.92 1011.64
1013.58 1013.81 1013.88 1013.71 1013.35 1013.38 1013.37 1013.03 1013.36 1012.36 1011.55 1011.36 1011.31 1011.85 1012.28 1012.20 1012.34 1012.69 1012.85 1012.81 1012.98 1013.17 1013.73 1014.52 1015.01 1014.95 1014.95 1015.10 1015.73 1017.03 1017.92 1019.11 1020.35 1021.39 1021.09 1019.19 1016.57 1013.87 1013.01 1012.72 1012.51 1012.50 1012.58 1012.23 1011.78
1014.11 1014.16 1013.71 1013.24 1013.38 1013.60 1013.47 1013.18 1012.80 1012.22 1011.50 1011.45 1012.04 1012.35 1012.74 1012.94 1013.07 1013.16 1013.01 1012.87 1012.95 1013.15 1013.35 1014.52 1015.33 1015.63 1015.55 1015.60 1016.35 1016.76 1017.89 1019.33 1020.26 1021.29 1020.97 1018.98 1017.10 1014.83 1013.50 1012.97 1012.68 1012.52 1012.30 1011.80 1011.54
1014.16 1014.40 1013.34 1013.04 1013.22 1013.36 1013.98 1013.46 1012.45 1011.70 1011.33 1011.30 1011.83 1012.06 1012.45 1012.76 1012.92 1013.15 1013.23 1013.04 1012.87 1013.46 1013.55 1014.54 1015.51 1016.58 1016.21 1016.49 1016.77 1017.65 1018.08 1019.28 1020.01 1020.85 1021.08 1019.93 1016.30 1014.07 1013.40 1012.90 1012.64 1012.43 1012.09 1011.84 1011.50
1014.59 1014.56 1013.51 1013.17 1013.64 1014.05 1014.03 1013.54 1012.67 1011.91 1011.27 1011.15 1011.40 1011.83 1012.48 1012.91 1013.11 1013.14 1013.19 1013.01 1012.91 1013.06 1014.07 1014.70 1015.79 1017.11 1017.05 1016.93 1016.88 1017.14 1017.77 1018.66 1019.82 1021.19 1021.25 1020.05 1016.26 1013.64 1013.05 1012.69 1012.40 1012.00 1011.78 1011.52 1011.50
1015.22 1014.99 1013.60 1013.59 1014.84 1014.78 1014.22 1013.53 1012.88 1012.05 1011.53 1011.32 1011.46 1011.65 1012.21 1012.73 1013.23 1013.22 1013.13 1012.93 1012.94 1013.29 1013.88 1014.79 1016.21 1017.48 1017.78 1017.70 1017.42 1017.46 1017.82 1018.47 1019.37 1020.02 1020.34 1019.53 1015.81 1013.48 1012.86 1012.62 1011.89 1011.64 1011.31 1010.99 1011.04
1015.56 1015.61 1014.96 1014.51 1015.18 1015.07 1014.71 1013.77 1012.74 1011.91 1011.56 1011.36 1011.52 1011.59 1012.01 1012.58 1012.77 1013.15 1013.17 1013.21 1013.18 1013.45 1013.93 1014.75 1016.33 1017.16 1017.52 1017.29 1017.23 1017.39 1017.52 1018.06 1018.67 1019.68 1019.20 1017.68 1015.36 1013.37 1012.87 1012.29 1011.41 1010.99 1011.33 1011.64 1011.65
1016.15 1016.57 1016.45 1015.93 1015.44 1015.24 1014.76 1013.90 1012.97 1012.20 1011.64 1011.30 1011.48 1011.60 1011.82 1012.53 1012.90 1013.10 1013.29 1013.37 1013.52 1013.65 1014.35 1015.14 1016.54 1017.28 1017.20 1017.02 1017.01 1016.92 1017.07 1017.49 1017.84 1017.80 1017.62 1016.42 1015.32 1013.43 1012.55 1011.99 1011.45 1011.46 1011.51 1011.77 1012.20
1016.74 1016.68 1016.25 1016.15 1015.67 1014.89 1014.49 1013.82 1013.06 1012.27 1011.84 1011.39 1011.33 1011.58 1011.71 1012.20 1012.33 1012.72 1012.92 1013.15 1013.44 1014.06 1014.66 1015.47 1016.85 1017.54 1017.54 1017.00 1016.81 1016.74 1016.40 1016.53 1016.58 1016.51 1016.12 1015.65 1014.33 1012.41 1011.94 1011.78 1011.53 1011.64 1012.19 1012.64 1012.98
1017.40 1016.98 1016.86 1016.26 1015.99 1015.34 1014.62 1013.88 1013.11 1012.40 1011.93 1011.55 1011.45 1011.75 1011.90 1011.99 1011.98 1012.04 1012.39 1012.70 1013.03 1013.78 1014.75 1015.57 1016.63 1017.58 1017.60 1016.97 1016.31 1015.69 1014.28 1014.55 1014.74 1014.58 1014.45 1014.51 1012.61 1011.82 1011.67 1011.69 1011.86 1012.23 1012.83 1013.14 1013.32
Wind_Speed
21 22 21 19 19 17 15 15 13 14 17 18 19 19 18 13 11 6 15 8 12 19 10 5 6 3 2 2 4 4 4 5 7 7 4 1 2 4 1 3 5 2 1 5 8
20 22 21 19 18 16 16 14 14 13 16 17 19 18 19 22 7 15 8 17 19 15 5 10 9 7 3 4 3 4 5 10 7 6 4 2 2 3 4 6 3 3 5 6 7
23 21 21 18 18 17 16 14 11 13 15 17 17 17 19 17 4 8 25 23 19 16 6 5 8 6 4 3 4 4 5 5 5 4 3 3 2 1 1 4 4 2 5 5 1
21 20 19 17 17 15 13 13 13 14 16 16 17 17 18 5 6 2 8 25 21 14 9 6 6 8 5 6 5 4 4 5 3 4 4 3 0 3 5 7 3 3 1 3 2
19 19 19 17 15 14 13 13 14 14 16 16 14 14 8 5 9 3 10 11 18 13 12 9 7 6 7 6 5 4 3 5 5 5 3 3 5 6 6 8 7 6 5 4 3
21 18 16 14 15 13 11 12 14 16 13 14 14 12 6 8 5 7 6 5 16 14 10 8 7 5 5 5 5 7 6 5 4 4 3 4 5 6 4 6 8 5 8 7 5
19 18 15 15 13 13 12 13 15 13 15 13 11 8 10 8 3 7 3 8 12 14 11 7 6 4 6 4 5 4 2 1 5 4 5 4 7 7 9 10 12 9 8 9 9
21 17 15 13 12 13 14 15 15 13 13 11 11 4 7 0 6 10 7 6 7 5 10 9 6 4 3 3 4 7 3 2 3 6 5 8 5 7 9 7 11 11 8 8 11
21 18 17 13 12 11 12 15 16 15 13 8 4 4 5 1 3 8 2 8 12 6 7 7 5 3 3 6 4 2 4 4 5 5 2 7 3 4 3 1 9 10 10 8 8
20 19 17 14 12 12 12 18 13 5 3 2 5 3 2 5 3 5 4 10 9 12 8 6 4 4 2 5 8 6 3 2 4 2 2 4 7 10 8 5 8 10 10 9 8
22 18 15 12 11 8 6 5 5 3 1 3 1 4 4 3 7 3 5 7 6 11 7 8 5 14 12 6 4 5 4 4 3 2 2 5 5 13 10 6 9 10 12 13 14
25 17 16 13 9 2 2 1 4 0 4 0 8 6 5 5 5 1 3 5 2 13 7 5 7 6 8 8 6 5 4 3 4 1 1 5 10 17 14 8 10 13 13 13 9
24 16 13 14 5 2 1 2 2 3 1 2 6 7 3 1 6 3 2 2 4 4 12 5 4 4 13 9 7 2 4 2 3 4 2 7 7 6 4 2 5 7 8 7 8
26 20 10 9 4 2 2 4 5 3 5 4 4 0 7 4 5 3 4 1 3 6 12 5 2 6 7 5 4 2 2 2 2 2 3 4 6 8 5 9 4 5 9 7 7
26 19 11 4 6 1 2 2 2 3 5 2 3 2 4 5 9 3 2 6 5 6 1 3 8 5 8 5 5 3 4 4 2 4 3 3 3 11 4 5 4 8 8 7 6
25 15 10 5 3 2 3 1 3 6 6 4 3 6 7 4 3 4 2 4 4 10 7 4 5 4 5 4 2 9 5 6 4 3 3 3 4 8 1 2 6 5 6 7 8
19 18 8 3 1 0 1 3 6 7 2 1 7 5 7 4 5 4 2 5 3 4 4 5 2 1 4 7 4 4 6 3 5 4 4 2 1 10 5 5 3 4 6 8 7
11 10 8 4 4 1 3 4 9 3 6 5 7 12 6 6 5 3 3 3 5 5 3 4 3 2 3 3 5 2 5 5 5 1 4 1 7 5 4 2 2 1 4 9 12
6 3 2 2 3 2 3 6 1 2 4 8 8 7 5 6 4 4 4 2 2 2 6 5 3 2 4 2 3 3 2 2 6 2 3 4 8 7 5 5 2 4 8 10 9
2 2 4 2 1 1 3 4 2 4 3 5 4 2 3 2 3 2 3 1 4 2 2 2 5 2 2 3 6 2 6 3 3 2 3 5 5 5 5 4 6 8 9 12 10
4 3 4 5 3 3 4 3 1 2 3 3 3 3 4 4 3 4 4 1 2 3 5 4 4 1 3 2 6 2 2 5 4 3 4 2 6 7 6 1 4 8 9 9 9
3 4 2 2 6 2 3 6 6 4 2 3 4 4 4 2 2 2 7 2 4 6 5 2 4 3 2 1 1 3 5 5 5 4 1 2 9 3 5 6 5 12 9 7 4
2 2 3 3 4 4 5 3 2 3 3 0 2 2 2 5 3 2 3 1 6 4 7 5 2 3 4 4 2 3 4 4 4 3 5 5 7 1 4 8 11 10 8 7 11
2 4 5 5 2 2 5 4 4 2 2 3 3 3 4 2 4 4 2 4 6 6 8 5 3 5 6 5 4 3 4 5 6 4 4 7 8 12 12 13 15 14 7 6 7
4 2 1 4 1 2 2 2 3 5 4 1 2 3 4 3 2 3 2 2 4 2 4 4 4 1 4 4 3 4 4 8 8 6 7 4 7 11 14 14 15 10 6 9 9
3 3 2 3 3 0 3 3 4 4 2 2 5 3 3 4 6 7 6 3 4 2 4 1 3 1 4 3 4 5 9 9 12 11 12 13 20 18 14 8 7 6 6 7 9
3 2 0 3 5 1 2 2 3 4 2 3 4 3 3 1 2 4 2 5 5 8 4 4 6 3 4 3 5 6 9 13 7 6 9 9 14 7 10 7 6 6 6 7 9
Wind_Direction
321 318 311 308 299 294 294 290 293 297 312 312 312 323 309 249 224 235 233 214 208 242 274 152 194 179 100 162 128 138 109 182 192 168 217 202 180 334 360 306 335 235 223 303 131
318 312 311 308 302 290 296 299 303 294 298 301 312 313 312 327 212 238 224 217 223 229 195 167 170 143 156 190 180 149 164 195 190 182 187 120 91 303 9 353 311 322 36 39 138
313 317 315 311 305 310 312 305 296 296 295 302 308 308 321 329 238 252 221 217 209 217 177 135 139 141 170 154 194 168 199 189 227 184 162 137 297 220 103 294 222 15 343 16 91
322 319 315 315 310 312 304 301 298 291 287 296 304 307 311 265 234 207 212 203 201 198 165 145 134 153 158 182 180 149 194 181 240 228 161 175 127 305 199 232 191 178 131 335 358
323 326 322 314 320 318 312 305 300 290 290 295 298 303 310 231 241 293 322 191 193 181 186 172 144 134 167 163 119 171 187 206 267 287 217 168 216 223 244 257 268 266 282 256 272
322 325 327 322 319 323 307 304 304 299 294 294 301 303 266 251 238 332 282 201 175 177 171 162 155 168 140 182 164 181 200 237 258 247 252 209 235 159 261 252 264 223 254 270 243
319 318 322 327 323 314 307 308 303 291 291 295 292 287 256 246 191 350 249 170 161 176 159 160 164 137 133 125 190 143 106 265 247 203 235 167 269 226 235 253 257 238 232 256 257
319 316 311 318 318 317 312 302 301 296 294 292 281 287 255 245 336 314 316 141 148 128 141 138 131 108 144 135 58 119 77 194 286 169 236 137 247 272 235 239 264 270 250 237 256
321 316 306 304 309 315 308 304 296 289 285 280 293 198 239 20 142 269 250 173 159 137 147 136 105 163 96 119 100 60 174 193 307 198 194 188 290 258 347 169 269 282 284 258 256
320 316 305 307 307 313 311 304 303 298 253 210 250 287 265 196 208 146 234 142 150 148 112 134 160 127 101 181 185 161 180 215 208 212 138 260 274 278 280 289 245 272 271 274 259
314 309 308 307 305 316 343 355 16 30 348 185 343 238 131 246 159 122 171 139 158 171 148 162 161 195 184 159 149 129 130 190 239 295 294 253 262 280 274 262 265 260 266 266 258
313 286 309 302 309 333 96 91 211 176 312 127 298 278 257 263 106 177 226 130 135 130 94 123 197 174 146 137 122 121 125 233 282 293 309 318 291 268 266 238 234 249 258 266 285
337 325 237 278 321 105 195 234 15 66 211 71 324 284 167 213 99 168 139 72 85 103 137 119 163 121 156 163 166 120 154 188 238 340 47 326 290 320 301 287 333 302 279 293 288
347 341 215 234 121 141 306 357 73 98 75 270 186 41 138 201 67 136 72 115 104 94 106 85 237 148 124 156 127 110 165 111 62 50 265 14 287 301 309 324 321 348 6 353 343
10 25 83 129 131 177 2 64 90 51 93 347 5 308 87 84 141 45 59 360 98 97 191 88 116 126 152 143 155 186 104 100 80 80 18 348 87 269 6 359 358 347 8 12 4
10 34 47 52 43 30 123 43 59 45 46 8 20 101 79 32 46 103 122 119 39 60 59 112 117 146 150 119 252 145 88 57 55 73 20 286 140 283 180 106 308 340 354 351 354
9 19 30 353 109 72 29 349 26 57 276 49 106 96 96 81 81 77 53 54 92 115 57 37 33 98 115 92 44 85 74 334 359 17 219 219 151 250 291 273 260 315 317 326 324
3 12 29 45 5 19 336 37 56 13 73 125 95 70 64 30 49 65 84 109 45 89 112 139 139 60 7 107 161 103 142 162 207 183 274 321 238 252 222 202 341 350 324 345 347
357 341 47 263 220 318 350 55 353 332 84 130 74 55 41 28 76 76 2 95 114 76 115 112 48 29 45 96 94 191 109 180 110 70 47 252 285 313 24 100 50 342 339 319 312
72 40 283 331 221 93 84 78 30 214 47 61 90 189 119 113 101 114 177 190 112 83 101 163 92 10 82 94 40 124 141 82 1 113 285 283 284 246 291 327 349 332 315 329 321
55 36 263 332 121 68 68 17 303 9 48 97 148 105 122 135 124 150 178 282 100 114 65 116 98 9 98 187 169 136 104 59 107 99 161 284 266 209 222 268 283 314 308 297 296
90 33 301 7 46 16 25 334 340 324 342 57 95 97 108 94 79 107 192 229 158 145 122 73 112 137 191 355 228 159 168 136 117 231 83 126 274 276 259 264 298 305 291 283 306
46 272 314 84 69 357 324 294 263 319 353 15 99 103 131 145 125 163 200 98 148 136 151 172 16 55 355 358 10 202 187 138 121 88 202 145 261 162 312 287 303 305 308 349 343
55 16 333 45 32 19 8 338 334 274 314 72 103 83 110 96 36 175 113 1 189 171 129 96 122 155 188 203 146 185 180 173 134 127 198 235 290 298 299 304 304 329 335 325 347
27 54 76 325 334 16 252 286 326 2 343 40 94 165 130 108 91 125 129 99 62 151 86 125 126 100 261 236 182 207 186 186 199 186 181 239 228 274 286 295 305 302 327 341 348
45 3 347 285 285 304 360 13 353 328 8 356 122 105 38 158 184 192 141 158 171 64 123 62 123 61 303 327 219 239 222 207 214 230 251 264 285 275 276 288 287 319 334 343 337
342 318 250 329 323 332 208 279 303 337 36 49 105 88 81 325 241 206 134 144 165 145 135 123 141 113 275 312 304 276 220 195 195 207 206 226 241 293 297 314 318 321 354 339 343